Time,TemperatureF,DewpointF,PressureIn,WindDirection,WindDirectionDegrees,WindSpeedMPH,WindSpeedGustMPH,Humidity,HourlyPrecipIn,Conditions,Clouds,dailyrainin,SolarRadiationWatts/m^2,SoftwareType,DateUTC
2013-05-30 00:02:00,61.0,60.0,-100.00,North,10,2.0,8.0,98,-99.99,,,0.11,0.000000,,2013-05-30 10:02:00,
2013-05-30 00:12:00,61.0,60.0,-100.00,North,10,2.0,8.0,98,-99.99,,,0.11,0.000000,,2013-05-30 10:12:00,
2013-05-30 00:22:00,61.0,60.0,-100.00,North,10,2.0,8.0,98,-99.99,,,0.11,0.000000,,2013-05-30 10:22:00,
2013-05-30 00:42:00,60.0,59.0,-100.00,North,356,3.0,8.0,96,0.00,,,0.08,0.000000,,2013-05-30 10:42:00,
2013-05-30 00:52:00,60.0,59.0,-100.00,North,356,3.0,8.0,96,0.00,,,0.08,0.000000,,2013-05-30 10:52:00,
2013-05-30 01:03:00,60.0,59.0,-100.00,North,356,3.0,8.0,96,0.00,,,0.08,0.000000,,2013-05-30 11:03:00,
2013-05-30 01:12:00,60.0,59.0,-100.00,North,356,3.0,8.0,96,0.00,,,0.08,0.000000,,2013-05-30 11:12:00,
2013-05-30 01:21:00,60.0,59.0,-100.00,North,356,3.0,8.0,96,0.00,,,0.08,0.000000,,2013-05-30 11:21:00,
2013-05-30 01:42:00,59.0,58.0,-100.00,North,0,3.0,8.0,95,0.00,,,0.08,0.000000,,2013-05-30 11:42:00,
2013-05-30 01:52:00,59.0,58.0,-100.00,North,0,3.0,8.0,95,0.00,,,0.08,0.000000,,2013-05-30 11:52:00,
2013-05-30 02:01:00,59.0,58.0,-100.00,North,0,3.0,8.0,95,0.00,,,0.08,0.000000,,2013-05-30 12:01:00,
2013-05-30 02:11:00,59.0,58.0,-100.00,North,0,3.0,8.0,95,0.00,,,0.08,0.000000,,2013-05-30 12:11:00,
2013-05-30 02:21:00,59.0,58.0,-100.00,North,0,3.0,8.0,95,0.00,,,0.08,0.000000,,2013-05-30 12:21:00,
2013-05-30 02:42:00,59.0,56.0,-100.00,North,359,3.0,8.0,91,0.00,,,0.08,0.000000,,2013-05-30 12:42:00,
2013-05-30 02:52:00,59.0,56.0,-100.00,North,359,3.0,8.0,91,0.00,,,0.08,0.000000,,2013-05-30 12:52:00,
2013-05-30 03:01:00,59.0,56.0,-100.00,North,359,3.0,8.0,91,0.00,,,0.08,0.000000,,2013-05-30 13:01:00,
2013-05-30 03:11:00,59.0,56.0,-100.00,North,359,3.0,8.0,91,0.00,,,0.08,0.000000,,2013-05-30 13:11:00,
2013-05-30 03:21:00,59.0,56.0,-100.00,North,359,3.0,8.0,91,0.00,,,0.08,0.000000,,2013-05-30 13:21:00,
2013-05-30 03:42:00,59.0,56.0,-100.00,North,354,4.0,8.0,89,0.00,,,0.08,0.000000,,2013-05-30 13:42:00,
2013-05-30 03:52:00,59.0,56.0,-100.00,North,354,4.0,8.0,89,0.00,,,0.08,0.000000,,2013-05-30 13:52:00,
2013-05-30 04:01:00,59.0,56.0,-100.00,North,354,4.0,8.0,89,0.00,,,0.08,0.000000,,2013-05-30 14:01:00,
2013-05-30 04:11:00,59.0,56.0,-100.00,North,354,4.0,8.0,89,0.00,,,0.08,0.000000,,2013-05-30 14:11:00,
2013-05-30 04:21:00,59.0,56.0,-100.00,North,354,4.0,8.0,89,0.00,,,0.08,0.000000,,2013-05-30 14:21:00,
2013-05-30 04:42:00,58.0,55.0,-100.00,North,2,3.0,8.0,89,0.00,,,0.08,0.000000,,2013-05-30 14:42:00,
2013-05-30 04:52:00,58.0,55.0,-100.00,North,2,3.0,8.0,89,0.00,,,0.08,0.000000,,2013-05-30 14:52:00,
2013-05-30 05:01:00,58.0,55.0,-100.00,North,2,3.0,8.0,89,0.00,,,0.08,0.000000,,2013-05-30 15:01:00,
2013-05-30 05:11:00,58.0,55.0,-100.00,North,2,3.0,8.0,89,0.00,,,0.08,0.000000,,2013-05-30 15:11:00,
2013-05-30 05:22:00,58.0,55.0,-100.00,North,2,3.0,8.0,89,0.00,,,0.08,0.000000,,2013-05-30 15:22:00,
2013-05-30 05:43:00,58.0,52.0,-100.00,North,1,4.0,9.0,81,0.00,,,0.08,0.000000,,2013-05-30 15:43:00,
2013-05-30 05:52:00,58.0,52.0,-100.00,North,1,4.0,9.0,81,0.00,,,0.08,0.000000,,2013-05-30 15:52:00,
2013-05-30 06:03:00,58.0,52.0,-100.00,North,1,4.0,9.0,81,0.00,,,0.08,0.000000,,2013-05-30 16:03:00,
2013-05-30 06:12:00,58.0,52.0,-100.00,North,1,4.0,9.0,81,0.00,,,0.08,0.000000,,2013-05-30 16:12:00,
2013-05-30 06:22:00,58.0,52.0,-100.00,North,1,4.0,9.0,81,0.00,,,0.08,0.000000,,2013-05-30 16:22:00,
2013-05-30 06:42:00,59.0,54.0,-100.00,North,0,3.0,10.0,83,0.00,,,0.08,2.000000,,2013-05-30 16:42:00,
2013-05-30 06:53:00,59.0,54.0,-100.00,North,0,3.0,10.0,83,0.00,,,0.08,2.000000,,2013-05-30 16:53:00,
2013-05-30 07:02:00,59.0,54.0,-100.00,North,0,3.0,10.0,83,0.00,,,0.08,2.000000,,2013-05-30 17:02:00,
2013-05-30 07:11:00,59.0,54.0,-100.00,North,0,3.0,10.0,83,0.00,,,0.08,2.000000,,2013-05-30 17:11:00,
2013-05-30 07:22:00,59.0,54.0,-100.00,North,0,3.0,10.0,83,0.00,,,0.08,2.000000,,2013-05-30 17:22:00,
2013-05-30 07:42:00,59.0,57.0,-100.00,North,6,2.0,6.0,93,0.00,,,0.08,26.000000,,2013-05-30 17:42:00,
2013-05-30 07:52:00,59.0,57.0,-100.00,North,6,2.0,6.0,93,0.00,,,0.08,26.000000,,2013-05-30 17:52:00,
2013-05-30 08:02:00,59.0,57.0,-100.00,North,6,2.0,6.0,93,0.00,,,0.08,26.000000,,2013-05-30 18:02:00,
2013-05-30 08:11:00,59.0,57.0,-100.00,North,6,2.0,6.0,93,0.00,,,0.08,26.000000,,2013-05-30 18:11:00,
2013-05-30 08:21:00,59.0,57.0,-100.00,North,6,2.0,6.0,93,0.00,,,0.08,26.000000,,2013-05-30 18:21:00,
2013-05-30 08:43:00,62.0,56.0,-100.00,NE,38,2.0,8.0,82,0.00,,,0.08,266.000000,,2013-05-30 18:43:00,
2013-05-30 08:52:00,62.0,56.0,-100.00,NE,38,2.0,8.0,82,0.00,,,0.08,266.000000,,2013-05-30 18:52:00,
2013-05-30 09:01:00,62.0,56.0,-100.00,NE,38,2.0,8.0,82,0.00,,,0.08,266.000000,,2013-05-30 19:01:00,
2013-05-30 09:11:00,62.0,56.0,-100.00,NE,38,2.0,8.0,82,0.00,,,0.08,266.000000,,2013-05-30 19:11:00,
2013-05-30 09:22:00,62.0,56.0,-100.00,NE,38,2.0,8.0,82,0.00,,,0.08,266.000000,,2013-05-30 19:22:00,
2013-05-30 09:42:00,68.0,61.0,-100.00,SE,127,2.0,9.0,78,0.00,,,0.08,560.000000,,2013-05-30 19:42:00,
2013-05-30 09:52:00,68.0,61.0,-100.00,SE,127,2.0,9.0,78,0.00,,,0.08,560.000000,,2013-05-30 19:52:00,
2013-05-30 10:01:00,68.0,61.0,-100.00,SE,127,2.0,9.0,78,0.00,,,0.08,560.000000,,2013-05-30 20:01:00,
2013-05-30 10:11:00,68.0,61.0,-100.00,SE,127,2.0,9.0,78,0.00,,,0.08,560.000000,,2013-05-30 20:11:00,
2013-05-30 10:22:00,68.0,61.0,-100.00,SE,127,2.0,9.0,78,0.00,,,0.08,560.000000,,2013-05-30 20:22:00,
2013-05-30 10:42:00,69.0,63.0,-100.00,ESE,122,3.0,11.0,82,0.00,,,0.08,611.000000,,2013-05-30 20:42:00,
2013-05-30 10:52:00,69.0,63.0,-100.00,ESE,122,3.0,11.0,82,0.00,,,0.08,611.000000,,2013-05-30 20:52:00,
2013-05-30 11:01:00,69.0,63.0,-100.00,ESE,122,3.0,11.0,82,0.00,,,0.08,611.000000,,2013-05-30 21:01:00,
2013-05-30 11:11:00,69.0,63.0,-100.00,ESE,122,3.0,11.0,82,0.00,,,0.08,611.000000,,2013-05-30 21:11:00,
2013-05-30 11:22:00,69.0,63.0,-100.00,ESE,122,3.0,11.0,82,0.00,,,0.08,611.000000,,2013-05-30 21:22:00,
2013-05-30 11:43:00,69.0,62.0,-100.00,East,94,4.0,13.0,79,0.00,,,0.08,682.000000,,2013-05-30 21:43:00,
2013-05-30 11:53:00,69.0,62.0,-100.00,East,94,4.0,13.0,79,0.00,,,0.08,682.000000,,2013-05-30 21:53:00,
2013-05-30 12:02:00,69.0,62.0,-100.00,East,94,4.0,13.0,79,0.00,,,0.08,682.000000,,2013-05-30 22:02:00,
2013-05-30 12:12:00,69.0,62.0,-100.00,East,94,4.0,13.0,79,0.00,,,0.08,682.000000,,2013-05-30 22:12:00,
2013-05-30 12:22:00,69.0,62.0,-100.00,East,94,4.0,13.0,79,0.00,,,0.08,682.000000,,2013-05-30 22:22:00,
2013-05-30 12:42:00,69.0,63.0,-100.00,East,95,4.0,13.0,80,0.00,,,0.07,606.000000,,2013-05-30 22:42:00,
2013-05-30 12:52:00,69.0,63.0,-100.00,East,95,4.0,13.0,80,0.00,,,0.07,606.000000,,2013-05-30 22:52:00,
2013-05-30 13:02:00,69.0,63.0,-100.00,East,95,4.0,13.0,80,0.00,,,0.07,606.000000,,2013-05-30 23:02:00,
2013-05-30 13:11:00,69.0,63.0,-100.00,East,95,4.0,13.0,80,0.00,,,0.07,606.000000,,2013-05-30 23:11:00,
2013-05-30 13:21:00,69.0,63.0,-100.00,East,95,4.0,13.0,80,0.00,,,0.07,606.000000,,2013-05-30 23:21:00,
2013-05-30 13:42:00,71.0,62.0,-100.00,ENE,59,4.0,16.0,73,0.00,,,0.04,907.000000,,2013-05-30 23:42:00,
2013-05-30 13:52:00,71.0,62.0,-100.00,ENE,59,4.0,16.0,73,0.00,,,0.04,907.000000,,2013-05-30 23:52:00,
2013-05-30 14:01:00,71.0,62.0,-100.00,ENE,59,4.0,16.0,73,0.00,,,0.04,907.000000,,2013-05-31 00:01:00,
2013-05-30 14:11:00,71.0,62.0,-100.00,ENE,59,4.0,16.0,73,0.00,,,0.04,907.000000,,2013-05-31 00:11:00,
2013-05-30 14:21:00,71.0,62.0,-100.00,ENE,59,4.0,16.0,73,0.00,,,0.04,907.000000,,2013-05-31 00:21:00,
2013-05-30 14:42:00,69.0,67.0,-100.00,ENE,66,3.0,14.0,93,0.00,,,0.04,428.000000,,2013-05-31 00:42:00,
2013-05-30 14:52:00,69.0,67.0,-100.00,ENE,66,3.0,14.0,93,0.00,,,0.04,428.000000,,2013-05-31 00:52:00,
2013-05-30 15:01:00,69.0,67.0,-100.00,ENE,66,3.0,14.0,93,0.00,,,0.04,428.000000,,2013-05-31 01:01:00,
2013-05-30 15:12:00,69.0,67.0,-100.00,ENE,66,3.0,14.0,93,0.00,,,0.04,428.000000,,2013-05-31 01:12:00,
2013-05-30 15:21:00,69.0,67.0,-100.00,ENE,66,3.0,14.0,93,0.00,,,0.04,428.000000,,2013-05-31 01:21:00,
2013-05-30 15:42:00,65.0,64.0,-100.00,NNE,23,2.0,12.0,96,0.00,,,-99.99,217.000000,,2013-05-31 01:42:00,
2013-05-30 15:52:00,65.0,64.0,-100.00,NNE,23,2.0,12.0,96,0.00,,,-99.99,217.000000,,2013-05-31 01:52:00,
2013-05-30 16:02:00,65.0,64.0,-100.00,NNE,23,2.0,12.0,96,0.00,,,-99.99,217.000000,,2013-05-31 02:02:00,
2013-05-30 16:11:00,65.0,64.0,-100.00,NNE,23,2.0,12.0,96,0.00,,,-99.99,217.000000,,2013-05-31 02:11:00,
2013-05-30 16:21:00,65.0,64.0,-100.00,NNE,23,2.0,12.0,96,0.00,,,-99.99,217.000000,,2013-05-31 02:21:00,
2013-05-30 16:42:00,64.0,63.0,-100.00,NE,56,3.0,10.0,97,0.00,,,0.03,176.000000,,2013-05-31 02:42:00,
2013-05-30 16:52:00,64.0,63.0,-100.00,NE,56,3.0,10.0,97,0.00,,,0.03,176.000000,,2013-05-31 02:52:00,
2013-05-30 17:01:00,64.0,63.0,-100.00,NE,56,3.0,10.0,97,0.00,,,0.03,176.000000,,2013-05-31 03:01:00,
2013-05-30 17:11:00,64.0,63.0,-100.00,NE,56,3.0,10.0,97,0.00,,,0.03,176.000000,,2013-05-31 03:11:00,
2013-05-30 17:21:00,64.0,63.0,-100.00,NE,56,3.0,10.0,97,0.00,,,0.03,176.000000,,2013-05-31 03:21:00,
2013-05-30 17:43:00,64.0,63.0,-100.00,NE,52,2.0,10.0,98,0.01,,,-99.99,159.000000,,2013-05-31 03:43:00,
2013-05-30 17:53:00,64.0,63.0,-100.00,NE,52,2.0,10.0,98,0.01,,,-99.99,159.000000,,2013-05-31 03:53:00,
2013-05-30 18:02:00,64.0,63.0,-100.00,NE,52,2.0,10.0,98,0.01,,,-99.99,159.000000,,2013-05-31 04:02:00,
2013-05-30 18:12:00,64.0,63.0,-100.00,NE,52,2.0,10.0,98,0.01,,,-99.99,159.000000,,2013-05-31 04:12:00,
2013-05-30 18:22:00,64.0,63.0,-100.00,NE,52,2.0,10.0,98,0.01,,,-99.99,159.000000,,2013-05-31 04:22:00,
2013-05-30 18:42:00,63.0,63.0,-100.00,NE,41,2.0,11.0,99,0.02,,,-99.99,62.000000,,2013-05-31 04:42:00,
2013-05-30 18:53:00,63.0,63.0,-100.00,NE,41,2.0,11.0,99,0.02,,,-99.99,62.000000,,2013-05-31 04:53:00,
2013-05-30 19:02:00,63.0,63.0,-100.00,NE,41,2.0,11.0,99,0.02,,,-99.99,62.000000,,2013-05-31 05:02:00,
2013-05-30 19:12:00,63.0,63.0,-100.00,NE,41,2.0,11.0,99,0.02,,,-99.99,62.000000,,2013-05-31 05:12:00,
2013-05-30 19:21:00,63.0,63.0,-100.00,NE,41,2.0,11.0,99,0.02,,,-99.99,62.000000,,2013-05-31 05:21:00,
2013-05-30 19:42:00,62.0,62.0,-100.00,ENE,63,3.0,13.0,100,0.00,,,-99.99,21.000000,,2013-05-31 05:42:00,
2013-05-30 19:52:00,62.0,62.0,-100.00,ENE,63,3.0,13.0,100,0.00,,,-99.99,21.000000,,2013-05-31 05:52:00,
2013-05-30 20:01:00,62.0,62.0,-100.00,ENE,63,3.0,13.0,100,0.00,,,-99.99,21.000000,,2013-05-31 06:01:00,
2013-05-30 20:11:00,62.0,62.0,-100.00,ENE,63,3.0,13.0,100,0.00,,,-99.99,21.000000,,2013-05-31 06:11:00,
2013-05-30 20:21:00,62.0,62.0,-100.00,ENE,63,3.0,13.0,100,0.00,,,-99.99,21.000000,,2013-05-31 06:21:00,
2013-05-30 20:42:00,63.0,63.0,-100.00,NNE,16,3.0,11.0,100,0.01,,,-99.99,0.000000,,2013-05-31 06:42:00,
2013-05-30 20:52:00,63.0,63.0,-100.00,NNE,16,3.0,11.0,100,0.01,,,-99.99,0.000000,,2013-05-31 06:52:00,
2013-05-30 21:02:00,63.0,63.0,-100.00,NNE,16,3.0,11.0,100,0.01,,,-99.99,0.000000,,2013-05-31 07:02:00,
2013-05-30 21:11:00,63.0,63.0,-100.00,NNE,16,3.0,11.0,100,0.01,,,-99.99,0.000000,,2013-05-31 07:11:00,
2013-05-30 21:21:00,63.0,63.0,-100.00,NNE,16,3.0,11.0,100,0.01,,,-99.99,0.000000,,2013-05-31 07:21:00,
2013-05-30 21:42:00,63.0,63.0,-100.00,NNE,18,2.0,7.0,100,0.01,,,0.06,0.000000,,2013-05-31 07:42:00,
2013-05-30 21:52:00,63.0,63.0,-100.00,NNE,18,2.0,7.0,100,0.01,,,0.06,0.000000,,2013-05-31 07:52:00,
2013-05-30 22:01:00,63.0,63.0,-100.00,NNE,18,2.0,7.0,100,0.01,,,0.06,0.000000,,2013-05-31 08:01:00,
2013-05-30 22:11:00,63.0,63.0,-100.00,NNE,18,2.0,7.0,100,0.01,,,0.06,0.000000,,2013-05-31 08:11:00,
2013-05-30 22:21:00,63.0,63.0,-100.00,NNE,18,2.0,7.0,100,0.01,,,0.06,0.000000,,2013-05-31 08:21:00,
2013-05-30 22:42:00,62.0,61.0,-100.00,NNE,31,2.0,11.0,98,0.00,,,0.05,0.000000,,2013-05-31 08:42:00,
2013-05-30 22:52:00,62.0,61.0,-100.00,NNE,31,2.0,11.0,98,0.00,,,0.05,0.000000,,2013-05-31 08:52:00,
2013-05-30 23:01:00,62.0,61.0,-100.00,NNE,31,2.0,11.0,98,0.00,,,0.05,0.000000,,2013-05-31 09:01:00,
2013-05-30 23:11:00,62.0,61.0,-100.00,NNE,31,2.0,11.0,98,0.00,,,0.05,0.000000,,2013-05-31 09:11:00,
2013-05-30 23:21:00,62.0,61.0,-100.00,NNE,31,2.0,11.0,98,0.00,,,0.05,0.000000,,2013-05-31 09:21:00,
2013-05-30 23:43:00,60.0,58.0,-100.00,NNW,337,2.0,10.0,92,0.00,,,0.05,0.000000,,2013-05-31 09:43:00,
2013-05-30 23:53:00,60.0,58.0,-100.00,NNW,337,2.0,10.0,92,0.00,,,0.05,0.000000,,2013-05-31 09:53:00,